"Pseudo-MPEC" for P10HMKE

Created 2018 Jun 17 14:18:16 UT using Find_Orb

Click here for an explanation of pseudo-MPECs

 
 Astrometry: 
     P10HMKE  C2018 06 13XQAstrometryGRgDX:p:tulVplgP^.FLmo#QfeTD!w*y/xo#yjxkF51
     P10HMKE  C2018 06 13b/;.vEl*kw`u(M`7qWlHalW9aZl+37GBRUrx!i@T*o61VM\3@+NfF51
     P10HMKE  C2018 06 13gMQ43dKZ`$jXk4EeBO[Y:k`wXZ(,FxMNOaam3u-k?eG1TlPPvec6F51
     P10HMKE  C2018 06 13VJ34^ot+H3Q=NE*IRredacted;uirBTi*Vep@UDio(8Cg`y8=N7!F51
     P10HMKE KC2018 06 14Riwu;sOub3R']L]p3xVf%V@qMo.N!Q%vmy%h;ltwPFZn:[oXk57!474
     P10HMKE KC2018 06 14U.N$pW%H\!o5Z7QM2N#XbKO`D4Q3Shh[G_8L-u(V0bm;5%Cl8+qg474
     P10HMKE KC2018 06 14aWePcxV@xwg]6:Devu^n7NM4te@F,[#q1foA\6tZW1JqV5m0d,XU474
     P10HMKE KC2018 06 144`j.K0TXE2)1RyRiiLIF^Mrnb?XL%k(9seeQrV\0h[BrlOKEnKAn474
     P10HMKE |C2018 06 17cH@10`D6e5rY@D[PZk?hk.qp-i3d2v2Sbvm,22A_k;]EL4n/BeY*807
     P10HMKE |C2018 06 17Tw=r0m*=Uda8v\QBQ5w-N;AB%ca^Go\gF2q=Aw')jW?uSq00H=^c807
     P10HMKE |C2018 06 17^[hv'#l=B3cT_Zu6;XLRV#f6K^N4vcWR`^V,Uxs,XR[oGnONEOCP807

Station data:
(474) Mount John Observatory, Lake Tekapo  (S43.987388 E170.464960)  New
   Zealand.  Observers A. C. Gilmore, P. M. Kilmartin. Measurer P. M.
   Kilmartin. 1.0-m f/7.7 reflector + CCD.
(807) Cerro Tololo Observatory, La Serena  (S30.169136 W70.805900)  Chile.
   1.5-m Ritchey-Chrétien.
(F51) Pan-STARRS 1, Haleakala  (N20.707235 W156.255910)  US/Hawaii.
   Observers N. Primak, A. Schultz, S. Watters, J. Thiel, T. Goggia. Measurer
   PS1 Science Consortium. 1.8-m Ritchey-Chrétien + CCD.

Orbital elements:  P10HMKE
   Perihelion 2018 Aug 29.782257 +/- 3.62 TT = 18:46:27 (JD 2458360.282257)
Epoch 2018 Jun 17.0 TT = JDT 2458286.5   Earth MOID: 0.8201   AutoNEOCP
M 344.72797 +/- 1.5                 (J2000 ecliptic)
n   0.20698775 +/- 0.0123           Peri.  287.35380 +/- 2.4
a   2.83034651 +/- 0.112            Node    46.49428 +/- 0.7
e   0.3895242 +/- 0.0183            Incl.   18.59187 +/- 0.16
P   4.76                   H 17.2   G  0.15   U  9.8  
q 1.72785788 +/- 0.018    Q 3.93283514 +/- 0.219
From 11 observations 2018 June 13-17; mean residual 0".10
Residuals in arcseconds: 
180613 F51  .04-  .09-    180614 474  .09+  .21+    180617 807  .01-  .01-    
180613 F51  .04+  .11+    180614 474  .17-  .17+    180617 807  .05+  .06+    
180613 F51  .06+  .00     180614 474  .05+  .17-    180617 807  .03-  .05-    
180613 F51  .06-  .02-    180614 474  .04+  .21-    

Ephemerides (geocentric):
Date (UTC) HH   RA              Dec         delta   r     elong  mag " sig PA
---- -- -- --  -------------   -----------  ------ ------ -----  --- ---- ---
2018 06 17 14  22 48 26.585   -38 44 17.99  1.1516 1.8260 114.6 20.2  .08   6
2018 06 17 15  22 48 31.507   -38 44 35.22  1.1513 1.8259 114.7 20.1  .09   7
2018 06 17 16  22 48 36.427   -38 44 52.47  1.1509 1.8258 114.7 20.1  .11   8
2018 06 17 17  22 48 41.344   -38 45 09.73  1.1506 1.8257 114.7 20.1  .12   8
2018 06 17 18  22 48 46.260   -38 45 27.00  1.1502 1.8256 114.7 20.1  .13   9
2018 06 17 19  22 48 51.174   -38 45 44.27  1.1499 1.8255 114.7 20.1  .15   9
2018 06 17 20  22 48 56.086   -38 46 01.56  1.1495 1.8254 114.8 20.1  .16   9
2018 06 17 21  22 49 00.995   -38 46 18.86  1.1492 1.8252 114.8 20.1  .17  10
2018 06 17 22  22 49 05.903   -38 46 36.17  1.1488 1.8251 114.8 20.1  .19  10
2018 06 17 23  22 49 10.809   -38 46 53.49  1.1485 1.8250 114.8 20.1  .20  10
2018 06 18 00  22 49 15.712   -38 47 10.82  1.1481 1.8249 114.8 20.1  .22  10
2018 06 18 01  22 49 20.614   -38 47 28.16  1.1478 1.8248 114.9 20.1  .23  10
2018 06 18 02  22 49 25.514   -38 47 45.50  1.1474 1.8247 114.9 20.1  .25  10
2018 06 18 03  22 49 30.411   -38 48 02.86  1.1471 1.8246 114.9 20.1  .26  11
2018 06 18 04  22 49 35.307   -38 48 20.23  1.1468 1.8245 114.9 20.1  .28  11
2018 06 18 05  22 49 40.201   -38 48 37.61  1.1464 1.8244 114.9 20.1  .30  11
2018 06 18 06  22 49 45.092   -38 48 55.00  1.1461 1.8243 114.9 20.1  .31  11
2018 06 18 07  22 49 49.982   -38 49 12.40  1.1457 1.8242 115.0 20.1  .33  11
2018 06 18 08  22 49 54.869   -38 49 29.82  1.1454 1.8241 115.0 20.1  .35  11
2018 06 18 09  22 49 59.755   -38 49 47.24  1.1450 1.8240 115.0 20.1  .36  11
2018 06 18 10  22 50 04.638   -38 50 04.67  1.1447 1.8239 115.0 20.1  .38  11
2018 06 18 11  22 50 09.520   -38 50 22.11  1.1443 1.8238 115.0 20.1  .40  11
2018 06 18 12  22 50 14.399   -38 50 39.56  1.1440 1.8237 115.1 20.1  .42  11
2018 06 18 13  22 50 19.277   -38 50 57.02  1.1436 1.8236 115.1 20.1  .43  12
2018 06 18 14  22 50 24.152   -38 51 14.49  1.1433 1.8235 115.1 20.1  .45  12
2018 06 18 15  22 50 29.025   -38 51 31.97  1.1429 1.8233 115.1 20.1  .47  12
2018 06 18 16  22 50 33.897   -38 51 49.47  1.1426 1.8232 115.1 20.1  .49  12
2018 06 18 17  22 50 38.766   -38 52 06.97  1.1422 1.8231 115.2 20.1  .51  12
2018 06 18 18  22 50 43.633   -38 52 24.48  1.1419 1.8230 115.2 20.1  .53  12
2018 06 18 19  22 50 48.498   -38 52 42.00  1.1416 1.8229 115.2 20.1  .55  12
2018 06 18 20  22 50 53.361   -38 52 59.54  1.1412 1.8228 115.2 20.1  .57  12
2018 06 18 21  22 50 58.222   -38 53 17.08  1.1409 1.8227 115.2 20.1  .59  12
2018 06 18 22  22 51 03.081   -38 53 34.63  1.1405 1.8226 115.3 20.1  .61  12
2018 06 18 23  22 51 07.938   -38 53 52.20  1.1402 1.8225 115.3 20.1  .63  12
2018 06 19 00  22 51 12.793   -38 54 09.77  1.1398 1.8224 115.3 20.1  .65  12
2018 06 19 01  22 51 17.645   -38 54 27.35  1.1395 1.8223 115.3 20.1  .67  12
2018 06 19 02  22 51 22.496   -38 54 44.95  1.1391 1.8222 115.3 20.1  .69  12
2018 06 19 03  22 51 27.345   -38 55 02.55  1.1388 1.8221 115.3 20.1  .72  12
2018 06 19 04  22 51 32.191   -38 55 20.16  1.1385 1.8220 115.4 20.1  .74  12
2018 06 19 05  22 51 37.036   -38 55 37.79  1.1381 1.8219 115.4 20.1  .76  12
2018 06 19 06  22 51 41.878   -38 55 55.42  1.1378 1.8218 115.4 20.1  .78  12
2018 06 19 07  22 51 46.718   -38 56 13.07  1.1374 1.8217 115.4 20.1  .81  12
2018 06 19 08  22 51 51.556   -38 56 30.72  1.1371 1.8216 115.4 20.1  .83  12
2018 06 19 09  22 51 56.392   -38 56 48.39  1.1367 1.8215 115.5 20.1  .85  12
2018 06 19 10  22 52 01.226   -38 57 06.06  1.1364 1.8214 115.5 20.1  .88  12
2018 06 19 11  22 52 06.058   -38 57 23.74  1.1360 1.8213 115.5 20.1  .90  12
2018 06 19 12  22 52 10.888   -38 57 41.44  1.1357 1.8212 115.5 20.1  .92  12
2018 06 19 13  22 52 15.716   -38 57 59.14  1.1354 1.8211 115.5 20.1  .95  12